Weather Roundup
Issued by NWS

Home | Current Version | Previous Version | Graphics & Text | Print | Product List | Glossary Off
Versions: 1 2 3 4 5 6 7 8 9 10 11 12 13 14 15 16 17 18 19 20 21 22 23 24 25 26 27 28 29 30 31 32 33 34 35 36 37 38 39 40 41 42 43 44 45 46 47 48 49 50

000
NZUS93 KARX 261359
HRRWXR

CURRENT HOURLY OBSERVATIONS ACROSS
MUCH OF THE UPPER MISSISSIPPI VALLEY
NATIONAL WEATHER SERVICE LA CROSSE WI
900 AM CDT THU MAY 26 2016


...SOUTHEAST MINNESOTA...


CITY           SKY/WX    TMP DP  RH WIND       PRES   REMARKS
ROCHESTER      MOSUNNY   63  59  87 SW10      29.85F
ROCHESTER/MAYO FAIR      62  60  96 W7        29.85S
WINONA         PTSUNNY   61  57  88 SW5       29.84R
AUSTIN         SUNNY     63  57  82 SW6       29.83F
ALBERT LEA     SUNNY     64  59  82 CALM      29.84F
DODGE CENTER   SUNNY     63  63 100 W12       29.84S
PRESTON        CLOUDY    60  57  90 SW6       29.84F
OWATONNA       SUNNY     66  57  72 SW15      29.83F
FARIBAULT      CLOUDY    63  61  94 SW12      29.83S
$$

...ELSEWHERE IN MINNESOTA...


CITY           SKY/WX    TMP DP  RH WIND       PRES   REMARKS
MINNEAPOLIS    CLOUDY    65  57  75 SW8       29.81S
INTNL FALLS    CLOUDY    56  55  97 VRB5      29.76S FOG
DULUTH         FOG       49  48  97 SE5       29.81R VSB 1/8
RED WING       CLOUDY    64  59  82 W5        29.81F
REDWOOD FALLS  SUNNY     66  54  65 W10       29.82R
MANKATO        SUNNY     64  57  77 SW13      29.83F
WORTHINGTON    SUNNY     64  51  62 NW12      29.88R
FAIRMONT       SUNNY     64  57  77 SW12      29.86R
$$

...SOUTHWEST WISCONSIN...


CITY           SKY/WX    TMP DP  RH WIND       PRES   REMARKS
LA CROSSE      PTSUNNY   64  61  90 S3        29.81S
PRAIRIE DU CHI PTSUNNY   62  60  96 E5        29.83F
BOSCOBEL       PTSUNNY   68  61  78 VRB3      29.83F
LONE ROCK      NOT AVBL
PLATTEVILLE    MOSUNNY   67  61  82 N5        29.86F
FORT MC COY    CLOUDY    61  61  99 SE3       29.82R
MAUSTON-NEW LI CLOUDY    62  61  96 CALM      29.80F
VIROQUA        PTSUNNY   63  61  93 S3        29.84S
WIS DELLS      PTSUNNY   65  61  86 CALM      29.82S
$$

...ELSEWHERE IN WISCONSIN...


CITY           SKY/WX    TMP DP  RH WIND       PRES   REMARKS
MILWAUKEE      LGT RAIN  71  66  84 W13       29.92R
MADISON        CLOUDY    68  62  81 S5        29.85R
GREEN BAY      CLOUDY    65  64  97 S7        29.86R FOG
EAU CLAIRE     NOT AVBL
BLACK RVR FLS  DRIZZLE   62  62 100 E6        29.79S
MEDFORD        TSTM      60  60 100 S9        29.85R
WAUSAU         RAIN      63  32  31 S5        29.84F
WIS RAPIDS     LGT RAIN  61  59  93 NE8       29.79F
MARSHFIELD     LGT RAIN  62  60  93 NE6       29.80F
RICE LAKE      CLOUDY    62  60  95 CALM      29.83R
$$

...NORTHEAST IOWA...


CITY           SKY/WX    TMP DP  RH WIND       PRES   REMARKS
WATERLOO       CLOUDY    65  59  81 S12       29.85S
DUBUQUE        SUNNY     67  58  72 CALM      29.89R
DECORAH        CLOUDY    61  61 100 CALM      29.84R
MASON CITY     SUNNY     65  60  84 SW6       29.86F
CHARLES CITY   SUNNY     63  61  94 NW7       29.86R
OELWEIN        CLOUDY    64  61  88 SE12      29.85F
$$

...ELSEWHERE IN IOWA...


CITY           SKY/WX    TMP DP  RH WIND       PRES   REMARKS
DES MOINES     MOSUNNY   68  60  75 E6        29.89R
IOWA CITY      CLOUDY    69  59  70 SE6       29.91R
FORT DODGE     SUNNY     64  57  77 SW7       29.89R
MARSHALLTOWN   NOT AVBL
CEDAR RAPIDS   PTSUNNY   66  60  81 SE3       29.88F
$$

...NORTHERN ILLINOIS...


CITY           SKY/WX    TMP DP  RH WIND       PRES   REMARKS
CHICAGO-OHARE  CLOUDY    72  67  84 SW14G21   29.93R
CHICAGO-MIDWAY CLOUDY    73  66  78 SW12      29.93S
MOLINE         CLOUDY    70  61  73 SE5       29.87F
ROCKFORD       CLOUDY    66  63  90 SW7       29.92R
PEORIA         CLOUDY    67  63  87 SW5       29.92R
$$

NOTE: "FAIR" INDICATES FEW OR NO CLOUDS BELOW 12,000 FEET WITH NO
SIGNIFICANT WEATHER AND/OR OBSTRUCTIONS TO VISIBILITY. WIND
SPEEDS ARE IN MILES-PER-HOUR.




USA.gov is the U.S. government's official web portal to all federal, state and local government web resources and services.